| time (UTC) | temp F | wind direction | speed knots | gust knots | rain 1hr in | rain 24hr in | rain mn in | humidity % | barometer mb |
| 20260906191618 | 91 | 257 | 3.5 | 7.8 | 0.00 | 0.20 | 0.20 | 70 | 1013.8 |
| 20260906184602 | 92 | 253 | 0.0 | 2.6 | 0.00 | 0.20 | 0.20 | 69 | 1013.8 |
| 20260906183108 | 91 | 0 | 0.0 | 2.6 | 0.00 | 0.20 | 0.20 | 73 | 1013.9 |
| 20260906181609 | 89 | 0 | 0.0 | 1.7 | 0.00 | 0.20 | 0.20 | 76 | 1014.0 |
| 20260906180119 | 86 | 0 | 0.0 | 1.7 | 0.02 | 0.20 | 0.20 | 78 | 1014.4 |
| 20260906174604 | 83 | 0 | 0.0 | 0.0 | 0.04 | 0.20 | 0.20 | 85 | 1014.5 |
| 20260906173105 | 81 | 0 | 0.0 | 0.0 | 0.04 | 0.20 | 0.20 | 86 | 1014.5 |
| 20260906171606 | 81 | 0 | 0.0 | 1.7 | 0.04 | 0.20 | 0.20 | 85 | 1015.0 |
| 20260906170120 | 82 | 0 | 0.0 | 0.9 | 0.02 | 0.18 | 0.18 | 83 | 1015.3 |
| 20260906164605 | 82 | 0 | 0.0 | 0.0 | 0.02 | 0.16 | 0.16 | 84 | 1015.2 |
| 20260906163116 | 81 | 0 | 0.0 | 0.0 | 0.16 | 0.16 | 0.16 | 86 | 1015.0 |
| 20260906161611 | 80 | 0 | 0.0 | 1.7 | 0.16 | 0.16 | 0.16 | 86 | 1015.2 |
| 20260906160110 | 81 | 0 | 0.9 | 5.2 | 0.16 | 0.16 | 0.16 | 82 | 1015.0 |
| 20260906154605 | 87 | 53 | 1.7 | 5.2 | 0.14 | 0.80 | 0.14 | 76 | 1015.0 |
| 20260906153102 | 88 | 44 | 0.0 | 1.7 | 0.00 | 0.66 | 0.00 | 78 | 1014.9 |
| 20260906151602 | 88 | 0 | 0.0 | 1.7 | 0.00 | 0.66 | 0.00 | 78 | 1014.8 |
| 20260906150112 | 87 | 0 | 0.0 | 1.7 | 0.00 | 0.66 | 0.00 | 80 | 1014.8 |
| 20260906144604 | 86 | 0 | 0.0 | 1.7 | 0.00 | 0.66 | 0.00 | 81 | 1014.9 |
| 20260906143104 | 84 | 0 | 0.0 | 0.0 | 0.00 | 0.66 | 0.00 | 83 | 1015.0 |
| 20260906141601 | 83 | 0 | 0.0 | 0.0 | 0.00 | 0.66 | 0.00 | 84 | 1014.9 |
| 20260906140104 | 82 | 0 | 0.0 | 2.6 | 0.00 | 0.66 | 0.00 | 84 | 1014.7 |
| 20260906134601 | 82 | 0 | 0.0 | 1.7 | 0.00 | 0.66 | 0.00 | 85 | 1014.7 |
| 20260906133133 | 80 | 0 | 0.0 | 0.9 | 0.00 | 0.66 | 0.00 | 88 | 1014.6 |
| 20260906131602 | 79 | 0 | 0.0 | 0.0 | 0.00 | 0.66 | 0.00 | 88 | 1014.4 |
| 20260906130115 | 78 | 0 | 0.0 | 1.7 | 0.00 | 0.66 | 0.00 | 89 | 1014.3 |
| 20260906124608 | 77 | 0 | 0.0 | 1.7 | 0.00 | 0.66 | 0.00 | 90 | 1014.2 |
| 20260906123100 | 77 | 0 | 0.0 | 1.7 | 0.00 | 0.66 | 0.00 | 90 | 1014.0 |
| 20260906122536 | 77 | 44 | 0.0 | 0.0 | 0.00 | 0.66 | 0.00 | 91 | 1013.6 |
| 20260906122036 | 77 | 44 | 0.0 | 0.0 | 0.00 | 0.66 | 0.00 | 90 | 1013.5 |
| 20260906121557 | 76 | 0 | 0.0 | 0.0 | 0.00 | 0.66 | 0.00 | 90 | 1013.9 |
| 20260906120105 | 76 | 0 | 0.0 | 0.0 | 0.00 | 0.66 | 0.00 | 90 | 1013.7 |
| 20260906114559 | 76 | 0 | 0.0 | 0.0 | 0.00 | 0.66 | 0.00 | 89 | 1013.6 |
| 20260906113058 | 76 | 0 | 0.0 | 0.0 | 0.00 | 0.66 | 0.00 | 89 | 1013.4 |
| 20260906111619 | 76 | 0 | 0.0 | 0.0 | 0.00 | 0.66 | 0.00 | 89 | 1013.2 |
| 20260906110100 | 77 | 0 | 0.0 | 0.0 | 0.00 | 0.66 | 0.00 | 89 | 1013.1 |
| 20260906104602 | 77 | 0 | 0.0 | 0.0 | 0.00 | 0.66 | 0.00 | 89 | 1013.0 |
| 20260906103102 | 77 | 0 | 0.0 | 0.0 | 0.00 | 0.66 | 0.00 | 89 | 1012.9 |
| 20260906101604 | 77 | 0 | 0.0 | 0.0 | 0.00 | 0.66 | 0.00 | 89 | 1013.0 |
| 20260906100100 | 77 | 0 | 0.0 | 0.0 | 0.00 | 0.66 | 0.00 | 89 | 1012.9 |
| 20260906094603 | 77 | 0 | 0.0 | 0.0 | 0.00 | 0.66 | 0.00 | 89 | 1012.7 |
| 20260906093103 | 77 | 0 | 0.0 | 0.0 | 0.00 | 0.66 | 0.00 | 89 | 1012.8 |
| 20260906091601 | 77 | 0 | 0.0 | 0.0 | 0.00 | 0.66 | 0.00 | 89 | 1012.7 |
| 20260906090103 | 77 | 0 | 0.0 | 0.0 | 0.00 | 0.66 | 0.00 | 89 | 1012.5 |
| 20260906084602 | 77 | 0 | 0.0 | 0.0 | 0.00 | 0.66 | 0.00 | 89 | 1012.7 |
| 20260906083100 | 77 | 0 | 0.0 | 0.0 | 0.00 | 0.66 | 0.00 | 88 | 1012.6 |
| 20260906081604 | 77 | 0 | 0.0 | 0.0 | 0.00 | 0.66 | 0.00 | 88 | 1012.6 |
| 20260906080104 | 77 | 0 | 0.0 | 0.0 | 0.00 | 0.66 | 0.00 | 88 | 1012.8 |
| 20260906074601 | 78 | 0 | 0.0 | 0.0 | 0.00 | 0.66 | 0.00 | 88 | 1012.8 |
| 20260906073103 | 78 | 0 | 0.0 | 0.0 | 0.00 | 0.66 | 0.00 | 88 | 1012.9 |
| 20260906071603 | 78 | 0 | 0.0 | 0.0 | 0.00 | 0.66 | 0.00 | 88 | 1012.9 |
| 20260906070100 | 78 | 0 | 0.0 | 0.0 | 0.00 | 0.66 | 0.00 | 88 | 1013.0 |
| 20260906064600 | 78 | 0 | 0.0 | 0.0 | 0.00 | 0.66 | 0.00 | 88 | 1013.1 |
| 20260906063100 | 78 | 0 | 0.0 | 0.0 | 0.00 | 0.66 | 0.00 | 89 | 1013.1 |
| 20260906061600 | 78 | 0 | 0.0 | 0.0 | 0.00 | 0.66 | 0.00 | 89 | 1013.2 |
| 20260906060059 | 78 | 0 | 0.0 | 0.0 | 0.00 | 0.66 | 0.00 | 89 | 1013.3 |
| 20260906054607 | 78 | 0 | 0.0 | 0.0 | 0.00 | 0.66 | 0.00 | 89 | 1013.2 |
| 20260906053102 | 78 | 0 | 0.0 | 0.0 | 0.00 | 0.66 | 0.00 | 88 | 1013.0 |
| 20260906051613 | 78 | 0 | 0.0 | 0.0 | 0.00 | 0.66 | 0.00 | 88 | 1012.9 |
| 20260906050106 | 78 | 0 | 0.0 | 0.0 | 0.00 | 0.66 | 0.00 | 88 | 1013.0 |
| 20260906044608 | 78 | 0 | 0.0 | 0.0 | 0.00 | 0.66 | 0.66 | 88 | 1013.0 |
| 20260906043102 | 77 | 0 | 0.0 | 0.0 | 0.00 | 0.66 | 0.66 | 88 | 1013.0 |
| 20260906041601 | 77 | 0 | 0.0 | 0.0 | 0.00 | 0.66 | 0.66 | 88 | 1012.9 |
| 20260906040139 | 77 | 0 | 0.0 | 0.0 | 0.00 | 0.66 | 0.66 | 87 | 1013.0 |
| 20260906034620 | 78 | 0 | 0.0 | 0.0 | 0.00 | 0.66 | 0.66 | 87 | 1013.0 |
| 20260906033107 | 78 | 0 | 0.0 | 0.0 | 0.00 | 0.66 | 0.66 | 87 | 1013.3 |
| 20260906031559 | 78 | 0 | 0.0 | 0.0 | 0.00 | 0.66 | 0.66 | 87 | 1013.3 |
| 20260906030104 | 78 | 0 | 0.0 | 0.0 | 0.00 | 0.66 | 0.66 | 87 | 1013.1 |
| 20260906024613 | 79 | 0 | 0.0 | 0.0 | 0.00 | 0.66 | 0.66 | 87 | 1013.0 |
| 20260906023103 | 79 | 0 | 0.0 | 0.0 | 0.00 | 0.66 | 0.66 | 87 | 1012.8 |
| 20260906021601 | 79 | 0 | 0.0 | 0.0 | 0.00 | 0.66 | 0.66 | 87 | 1012.5 |
| 20260906014600 | 79 | 0 | 0.0 | 0.9 | 0.00 | 0.66 | 0.66 | 87 | 1012.4 |
| 20260906013112 | 80 | 0 | 0.0 | 0.9 | 0.00 | 0.66 | 0.66 | 87 | 1012.3 |
| 20260906011558 | 80 | 0 | 0.0 | 0.0 | 0.00 | 0.66 | 0.66 | 87 | 1012.1 |
| 20260906004604 | 81 | 0 | 0.0 | 0.0 | 0.00 | 0.66 | 0.66 | 86 | 1012.3 |
| 20260906003104 | 81 | 0 | 0.0 | 1.7 | 0.00 | 0.66 | 0.66 | 85 | 1012.4 |
| 20260906001608 | 81 | 0 | 0.0 | 1.7 | 0.00 | 0.66 | 0.66 | 85 | 1012.6 |
| 20260906000104 | 82 | 0 | 0.0 | 1.7 | 0.00 | 0.66 | 0.66 | 85 | 1012.9 |
| 20260905234606 | 82 | 0 | 0.0 | 6.1 | 0.00 | 0.66 | 0.66 | 85 | 1013.0 |
| 20260905233106 | 82 | 0 | 0.0 | 3.5 | 0.00 | 0.66 | 0.66 | 85 | 1013.0 |
| 20260905231605 | 84 | 38 | 0.0 | 4.3 | 0.00 | 0.66 | 0.66 | 86 | 1012.8 |
| 20260905230106 | 85 | 0 | 1.7 | 4.3 | 0.00 | 0.66 | 0.66 | 84 | 1012.6 |
| 20260905224616 | 86 | 117 | 0.9 | 3.5 | 0.00 | 0.66 | 0.66 | 81 | 1012.4 |
| 20260905223116 | 87 | 0 | 0.0 | 1.7 | 0.00 | 0.66 | 0.66 | 80 | 1012.5 |
| 20260905221605 | 87 | 0 | 0.0 | 1.7 | 0.00 | 0.66 | 0.66 | 79 | 1012.6 |
| 20260905214603 | 87 | 0 | 0.0 | 0.0 | 0.00 | 0.66 | 0.66 | 78 | 1012.4 |
| 20260905213106 | 88 | 0 | 0.0 | 3.5 | 0.00 | 0.66 | 0.66 | 76 | 1012.5 |
| 20260905211600 | 88 | 0 | 0.0 | 1.7 | 0.00 | 0.66 | 0.66 | 77 | 1012.6 |
| 20260905210107 | 89 | 0 | 0.0 | 2.6 | 0.00 | 0.66 | 0.66 | 75 | 1012.7 |
| 20260905204606 | 90 | 0 | 0.0 | 1.7 | 0.00 | 0.66 | 0.66 | 76 | 1012.8 |
| 20260905203102 | 91 | 0 | 0.0 | 0.0 | 0.00 | 0.66 | 0.66 | 71 | 1012.9 |
| 20260905201559 | 91 | 0 | 0.0 | 2.6 | 0.00 | 0.66 | 0.66 | 72 | 1013.0 |
| 20260905200106 | 91 | 0 | 0.0 | 2.6 | 0.00 | 0.66 | 0.66 | 74 | 1013.1 |
| 20260905194603 | 91 | 0 | 0.0 | 2.6 | 0.00 | 0.66 | 0.66 | 77 | 1013.0 |
| 20260905193103 | 90 | 189 | 0.0 | 4.3 | 0.00 | 0.66 | 0.66 | 78 | 1013.0 |